Weather History for Chamberlain, SD

Change the Weather History Date:

Thursday, May 15, 2014

  Actual Average Record
Temperature  
Mean Temperature 44 °F -  
Max Temperature 57 °F 66 °F 82 °F (2013)
Min Temperature 30 °F 43 °F 30 °F (2005)
Degree Days  
Heating Degree Days 22    
Moisture  
Dew Point 26 °F    
Average Humidity 52    
Maximum Humidity 79    
Minimum Humidity 27    
Precipitation  
Precipitation 0.00 in - - ()
Sea Level Pressure  
Sea Level Pressure 30.25 in    
Wind  
Wind Speed 6 mph (NE)    
Max Wind Speed 18 mph    
Max Gust Speed 23 mph    
Averages and records for this station are not official NWS values.
T = Trace of Precipitation, MM = Missing Value Source: NWS Daily Summary

Daily Weather History Graph

Daily Weather History Graph

Search for Another Location

Airport:

Trip Planner

Search our weather history database for the weather conditions in past years. The results will help you decide how hot, cold, wet, or windy it might be!

Date:

Astronomy

May. 15, 2014 Rise Set
Actual Time 6:11 AM CDT 8:56 PM CDT
Civil Twilight 5:38 AM CDT 9:29 PM CDT
Nautical Twilight 4:56 AM CDT 10:11 PM CDT
Astronomical Twilight 4:08 AM CDT 11:00 PM CDT
Moon 10:05 PM CDT (5/15) 7:00 AM CDT (5/15)
Length of Visible Light 15h 50m
Length of Day
14h 44m
Full, 99% of the Moon is Illuminated
May 15
Full
May 21
Last Quarter
May 28
New
Jun 5
First Quarter
Jun 12
Full

Hourly Weather History & Observations

Time (CDT) Temp. Windchill Dew Point Humidity Pressure Visibility Wind Dir Wind Speed Gust Speed Precip Events Conditions
12:52 AM 37.9 °F 35.5 °F 25.0 °F 60% 30.30 in - NE 3.5 mph - N/A   Unknown
1:52 AM 37.9 °F - 25.0 °F 60% 30.30 in - Calm Calm - N/A   Unknown
2:52 AM 36.0 °F 30.3 °F 25.0 °F 64% 30.29 in - NE 6.9 mph - N/A   Unknown
3:52 AM 35.1 °F 30.1 °F 26.1 °F 70% 30.28 in - NNE 5.8 mph - N/A   Unknown
4:52 AM 33.1 °F - 25.0 °F 72% 30.29 in - Calm Calm - N/A   Unknown
5:52 AM 30.9 °F 24.3 °F 24.1 °F 76% 30.29 in - ENE 6.9 mph - N/A   Unknown
6:52 AM 32.0 °F 25.6 °F 26.1 °F 79% 30.29 in - East 6.9 mph - N/A   Unknown
7:52 AM 37.0 °F 32.4 °F 30.0 °F 76% 30.30 in - ENE 5.8 mph - N/A   Unknown
8:52 AM 42.1 °F 39.2 °F 30.9 °F 65% 30.30 in - NE 4.6 mph - N/A   Unknown
9:52 AM 46.0 °F 43.9 °F 30.0 °F 54% 30.30 in - North 4.6 mph - N/A   Unknown
10:52 AM 48.0 °F - 30.0 °F 50% 30.29 in - North 8.1 mph - N/A   Unknown
11:52 AM 50.0 °F - 30.0 °F 46% 30.28 in - NNE 8.1 mph - N/A   Unknown
12:52 PM 52.0 °F - 27.0 °F 38% 30.27 in - North 13.8 mph 20.7 mph N/A   Unknown
2:52 PM 55.0 °F - 26.1 °F 33% 30.24 in - North 13.8 mph - N/A   Unknown
3:52 PM 55.9 °F - 25.0 °F 30% 30.22 in - NNE 18.4 mph 23.0 mph N/A   Unknown
4:52 PM 55.9 °F - 25.0 °F 30% 30.20 in - North 9.2 mph 20.7 mph N/A   Unknown
5:52 PM 57.9 °F - 24.1 °F 27% 30.19 in - NNE 15.0 mph 19.6 mph N/A   Unknown
6:52 PM 55.9 °F - 23.0 °F 28% 30.18 in - NE 6.9 mph - N/A   Unknown
7:52 PM 54.0 °F - 25.0 °F 33% 30.17 in - NNE 8.1 mph - N/A   Unknown
8:52 PM 48.9 °F - 25.0 °F 39% 30.17 in - East 3.5 mph - N/A   Unknown
9:52 PM 46.9 °F - 25.0 °F 42% 30.17 in - East 5.8 mph - N/A   Unknown
10:52 PM 39.0 °F 32.8 °F 27.0 °F 62% 30.17 in - ESE 9.2 mph - N/A   Unknown
11:52 PM 37.9 °F 32.7 °F 28.9 °F 70% 30.16 in - SE 6.9 mph - N/A   Unknown